Location: Devore Heights
(34.2372°N, 117.4156°W)
Time: 19:23:15
(UTC+00:00)

Vanguard 1 - Pass Details

Date: 14 September 2024
Orbit: 648 x 3825 km, 34.3° (Epoch: 13 October)

Event Time Altitude Azimuth Distance (km) Brightness Sun altitude
Rises 02:16:57 0° 277° (W) 3,198 15.9 -4.7°
Reaches altitude 10° 02:19:45 10° 265° (W) 2,114 13.5 -5.3°
Maximum altitude 02:23:35 27° 207° (SSW) 1,242 10.9 -6.1°
Drops below altitude 10° 02:27:27 10° 148° (SSE) 2,130 11.4 -6.9°
Enters shadow 02:29:50 - 137° (SE) 3,043 12.1 -7.3°
